Time,TemperatureF,DewpointF,PressureIn,WindDirection,WindDirectionDegrees,WindSpeedMPH,WindSpeedGustMPH,Humidity,HourlyPrecipIn,Conditions,Clouds,dailyrainin,SoftwareType,DateUTC
2013-09-14 00:14:00,76.0,73.0,29.84,West,272,0.0,0.0,91,0.00,,,0.01,,2013-09-14 04:14:00,
2013-09-14 00:24:00,76.0,73.0,29.84,West,272,0.0,0.0,91,0.00,,,0.01,,2013-09-14 04:24:00,
2013-09-14 00:43:00,76.0,73.0,29.84,West,272,0.0,0.0,91,0.00,,,0.01,,2013-09-14 04:43:00,
2013-09-14 00:54:00,76.0,73.0,29.83,West,271,0.0,0.0,91,0.00,,,0.01,,2013-09-14 04:54:00,
2013-09-14 01:13:00,76.0,73.0,29.84,West,272,0.0,0.0,91,0.00,,,0.01,,2013-09-14 05:13:00,
2013-09-14 01:22:00,76.0,73.0,29.84,West,271,0.0,0.0,91,0.00,,,0.01,,2013-09-14 05:22:00,
2013-09-14 01:43:00,76.0,73.0,29.84,West,272,0.0,0.0,91,0.00,,,0.01,,2013-09-14 05:43:00,
2013-09-14 01:52:00,75.0,73.0,29.84,West,271,0.0,0.0,92,0.00,,,0.01,,2013-09-14 05:52:00,
2013-09-14 02:12:00,75.0,73.0,29.84,West,271,0.0,0.0,93,0.00,,,0.01,,2013-09-14 06:12:00,
2013-09-14 02:22:00,75.0,73.0,29.84,West,271,0.0,0.0,93,0.00,,,0.00,,2013-09-14 06:22:00,
2013-09-14 02:42:00,75.0,73.0,29.84,West,271,0.0,0.0,93,0.00,,,0.00,,2013-09-14 06:42:00,
2013-09-14 02:52:00,75.0,73.0,29.84,West,272,0.0,0.0,93,0.00,,,0.00,,2013-09-14 06:52:00,
2013-09-14 03:12:00,75.0,73.0,29.84,West,272,0.0,0.0,93,0.00,,,0.00,,2013-09-14 07:12:00,
2013-09-14 03:22:00,75.0,73.0,29.84,West,271,0.0,0.0,94,0.00,,,0.00,,2013-09-14 07:22:00,
2013-09-14 03:42:00,75.0,73.0,29.83,West,272,0.0,0.0,94,0.00,,,0.00,,2013-09-14 07:42:00,
2013-09-14 03:52:00,75.0,73.0,29.83,West,271,0.0,0.0,95,0.00,,,0.00,,2013-09-14 07:52:00,
2013-09-14 04:12:00,75.0,73.0,29.83,West,272,0.0,0.0,95,0.00,,,0.00,,2013-09-14 08:12:00,
2013-09-14 04:22:00,74.0,72.0,29.83,West,272,0.0,0.0,94,0.00,,,0.00,,2013-09-14 08:22:00,
2013-09-14 04:42:00,74.0,72.0,29.83,West,272,0.0,0.0,95,0.00,,,0.00,,2013-09-14 08:42:00,
2013-09-14 04:52:00,74.0,72.0,29.83,West,272,0.0,0.0,95,0.00,,,0.00,,2013-09-14 08:52:00,
2013-09-14 05:12:00,74.0,72.0,29.84,West,271,0.0,0.0,95,0.00,,,0.00,,2013-09-14 09:12:00,
2013-09-14 05:22:00,74.0,72.0,29.83,West,272,0.0,0.0,95,0.00,,,0.00,,2013-09-14 09:22:00,
2013-09-14 05:43:00,74.0,72.0,29.84,West,272,0.0,0.0,95,0.00,,,0.00,,2013-09-14 09:43:00,
2013-09-14 05:53:00,74.0,72.0,29.83,West,272,0.0,0.0,95,0.00,,,0.00,,2013-09-14 09:53:00,
2013-09-14 06:12:00,74.0,73.0,29.83,West,272,0.0,0.0,96,0.00,,,0.00,,2013-09-14 10:12:00,
2013-09-14 06:23:00,74.0,73.0,29.84,West,272,0.0,0.0,96,0.00,,,0.00,,2013-09-14 10:23:00,
2013-09-14 06:52:00,74.0,73.0,29.84,West,271,0.0,0.0,96,0.00,,,0.00,,2013-09-14 10:52:00,
2013-09-14 07:12:00,74.0,73.0,29.85,West,271,0.0,0.0,96,0.00,,,0.00,,2013-09-14 11:12:00,
2013-09-14 07:22:00,74.0,73.0,29.85,West,272,0.0,0.0,96,0.00,,,0.00,,2013-09-14 11:22:00,
2013-09-14 07:42:00,74.0,73.0,29.86,West,271,0.0,0.0,96,0.00,,,0.00,,2013-09-14 11:42:00,
2013-09-14 07:52:00,75.0,74.0,29.86,West,272,0.0,0.0,96,0.00,,,0.00,,2013-09-14 11:52:00,
2013-09-14 08:12:00,75.0,74.0,29.86,West,271,0.0,0.0,97,0.00,,,0.00,,2013-09-14 12:12:00,
2013-09-14 08:22:00,75.0,74.0,29.87,West,272,0.0,0.0,97,0.00,,,0.00,,2013-09-14 12:22:00,
2013-09-14 08:52:00,79.0,76.0,29.88,East,91,0.0,2.0,92,0.00,,,0.00,,2013-09-14 12:52:00,
2013-09-14 09:12:00,81.0,77.0,29.88,ESE,122,0.0,3.0,87,0.00,,,0.00,,2013-09-14 13:12:00,
2013-09-14 09:21:00,81.0,77.0,29.89,East,101,0.0,0.0,87,0.00,,,0.00,,2013-09-14 13:21:00,
2013-09-14 09:42:00,80.0,76.0,29.90,East,101,0.0,0.0,88,0.00,,,0.00,,2013-09-14 13:42:00,
2013-09-14 09:52:00,83.0,77.0,29.90,East,101,0.0,2.0,82,0.00,,,0.00,,2013-09-14 13:52:00,
2013-09-14 10:12:00,83.0,76.0,29.90,East,101,0.0,2.0,79,0.00,,,0.00,,2013-09-14 14:12:00,
2013-09-14 10:22:00,81.0,76.0,29.91,East,101,0.0,1.0,84,0.00,,,0.00,,2013-09-14 14:22:00,
2013-09-14 10:42:00,81.0,76.0,29.91,East,101,0.0,1.0,86,0.00,,,0.00,,2013-09-14 14:42:00,
2013-09-14 10:52:00,81.0,76.0,29.91,East,101,0.0,1.0,84,0.00,,,0.00,,2013-09-14 14:52:00,
2013-09-14 11:11:00,82.0,76.0,29.91,East,101,0.0,0.0,81,0.00,,,0.00,,2013-09-14 15:11:00,
2013-09-14 11:22:00,85.0,75.0,29.91,SE,126,1.0,3.0,72,0.00,,,0.00,,2013-09-14 15:22:00,
2013-09-14 11:43:00,84.0,76.0,29.92,East,89,0.0,2.0,77,0.00,,,0.00,,2013-09-14 15:43:00,
2013-09-14 11:53:00,85.0,77.0,29.92,East,89,0.0,2.0,76,0.00,,,0.00,,2013-09-14 15:53:00,
2013-09-14 12:14:00,88.0,75.0,29.92,ENE,59,1.0,4.0,66,0.00,,,0.00,,2013-09-14 16:14:00,
2013-09-14 12:23:00,87.0,76.0,29.92,WNW,284,0.0,2.0,70,0.00,,,0.00,,2013-09-14 16:23:00,
2013-09-14 12:44:00,85.0,77.0,29.92,NW,321,0.0,2.0,76,0.00,,,0.00,,2013-09-14 16:44:00,
2013-09-14 12:54:00,85.0,76.0,29.92,WNW,282,1.0,3.0,75,0.00,,,0.00,,2013-09-14 16:54:00,
2013-09-14 13:11:00,85.0,76.0,29.92,West,267,1.0,4.0,74,0.00,,,0.00,,2013-09-14 17:11:00,
2013-09-14 13:24:00,86.0,76.0,29.92,WNW,289,1.0,3.0,73,0.00,,,0.00,,2013-09-14 17:24:00,
2013-09-14 13:43:00,87.0,78.0,29.91,West,274,0.0,5.0,76,0.00,,,0.00,,2013-09-14 17:43:00,
2013-09-14 13:54:00,86.0,77.0,29.91,WNW,303,0.0,3.0,74,0.00,,,0.00,,2013-09-14 17:54:00,
2013-09-14 14:12:00,86.0,76.0,29.90,NW,307,0.0,5.0,72,0.00,,,0.00,,2013-09-14 18:12:00,
2013-09-14 14:22:00,86.0,77.0,29.90,WNW,283,2.0,5.0,74,0.00,,,0.00,,2013-09-14 18:22:00,
2013-09-14 14:43:00,85.0,76.0,29.90,NNW,348,2.0,5.0,74,0.00,,,0.00,,2013-09-14 18:43:00,
2013-09-14 14:52:00,87.0,76.0,29.89,NNW,338,0.0,5.0,71,0.00,,,0.00,,2013-09-14 18:52:00,
2013-09-14 15:11:00,88.0,77.0,29.89,NNW,331,2.0,7.0,69,0.00,,,0.00,,2013-09-14 19:11:00,
2013-09-14 15:22:00,90.0,78.0,29.89,WNW,300,2.0,9.0,68,0.00,,,0.00,,2013-09-14 19:22:00,
2013-09-14 15:42:00,90.0,77.0,29.88,WNW,284,5.0,11.0,65,0.00,,,0.00,,2013-09-14 19:42:00,
2013-09-14 15:52:00,91.0,77.0,29.88,WNW,288,2.0,8.0,64,0.00,,,0.00,,2013-09-14 19:52:00,
2013-09-14 16:12:00,91.0,77.0,29.88,WNW,288,4.0,8.0,64,0.00,,,0.00,,2013-09-14 20:12:00,
2013-09-14 16:22:00,91.0,78.0,29.88,NW,307,2.0,9.0,65,0.00,,,0.00,,2013-09-14 20:22:00,
2013-09-14 16:42:00,89.0,76.0,29.87,WNW,286,3.0,8.0,66,0.00,,,0.00,,2013-09-14 20:42:00,
2013-09-14 16:52:00,90.0,78.0,29.88,NW,306,2.0,8.0,68,0.00,,,0.00,,2013-09-14 20:52:00,
2013-09-14 17:12:00,90.0,77.0,29.88,WNW,288,6.0,10.0,65,0.00,,,0.00,,2013-09-14 21:12:00,
2013-09-14 17:22:00,90.0,77.0,29.88,West,261,3.0,8.0,66,0.00,,,0.00,,2013-09-14 21:22:00,
2013-09-14 17:44:00,89.0,76.0,29.88,West,269,2.0,8.0,66,0.00,,,0.00,,2013-09-14 21:44:00,
2013-09-14 17:54:00,89.0,77.0,29.88,WNW,298,4.0,10.0,67,0.00,,,0.00,,2013-09-14 21:54:00,
2013-09-14 18:13:00,89.0,77.0,29.88,WNW,286,1.0,8.0,67,0.00,,,0.00,,2013-09-14 22:13:00,
2013-09-14 18:24:00,88.0,76.0,29.89,WNW,288,1.0,8.0,67,0.00,,,0.00,,2013-09-14 22:24:00,
2013-09-14 18:42:00,87.0,75.0,29.89,WNW,289,1.0,8.0,67,0.00,,,0.00,,2013-09-14 22:42:00,
2013-09-14 18:53:00,86.0,74.0,29.89,NW,311,1.0,4.0,68,0.00,,,0.00,,2013-09-14 22:53:00,
2013-09-14 19:12:00,86.0,75.0,29.89,WNW,299,2.0,6.0,70,0.00,,,0.00,,2013-09-14 23:12:00,
2013-09-14 19:23:00,85.0,75.0,29.90,West,276,0.0,3.0,72,0.00,,,0.00,,2013-09-14 23:23:00,
2013-09-14 19:42:00,84.0,74.0,29.90,NW,309,0.0,3.0,73,0.00,,,0.00,,2013-09-14 23:42:00,
2013-09-14 19:53:00,84.0,75.0,29.90,WNW,288,0.0,4.0,75,0.00,,,0.00,,2013-09-14 23:53:00,
2013-09-14 20:12:00,83.0,74.0,29.90,NW,306,0.0,1.0,75,0.00,,,0.00,,2013-09-15 00:12:00,
2013-09-14 20:22:00,82.0,74.0,29.90,WNW,300,0.0,2.0,76,0.00,,,0.00,,2013-09-15 00:22:00,
2013-09-14 20:42:00,82.0,74.0,29.91,West,270,0.0,2.0,77,0.00,,,0.00,,2013-09-15 00:42:00,
2013-09-14 20:53:00,82.0,74.0,29.91,West,271,0.0,2.0,78,0.00,,,0.00,,2013-09-15 00:53:00,
2013-09-14 21:11:00,82.0,75.0,29.92,West,270,0.0,1.0,79,0.00,,,0.00,,2013-09-15 01:11:00,
2013-09-14 21:22:00,81.0,74.0,29.93,West,270,0.0,0.0,79,0.00,,,0.00,,2013-09-15 01:22:00,
2013-09-14 21:42:00,81.0,74.0,29.94,West,271,0.0,1.0,80,0.00,,,0.00,,2013-09-15 01:42:00,
2013-09-14 21:52:00,81.0,74.0,29.94,West,270,0.0,0.0,80,0.00,,,0.00,,2013-09-15 01:52:00,
2013-09-14 22:12:00,81.0,75.0,29.95,West,271,0.0,0.0,81,0.00,,,0.00,,2013-09-15 02:12:00,
2013-09-14 22:22:00,80.0,74.0,29.96,West,270,0.0,0.0,82,0.00,,,0.00,,2013-09-15 02:22:00,
2013-09-14 22:42:00,80.0,74.0,29.97,East,87,1.0,4.0,82,0.00,,,0.00,,2013-09-15 02:42:00,
2013-09-14 22:52:00,80.0,74.0,29.97,NE,50,0.0,3.0,83,0.00,,,0.00,,2013-09-15 02:52:00,
2013-09-14 23:11:00,80.0,74.0,29.97,East,94,0.0,3.0,83,0.00,,,0.00,,2013-09-15 03:11:00,
2013-09-14 23:22:00,80.0,74.0,29.96,NE,41,0.0,0.0,83,0.00,,,0.00,,2013-09-15 03:22:00,
2013-09-14 23:44:00,80.0,74.0,29.94,NW,311,0.0,3.0,82,0.00,,,0.00,,2013-09-15 03:44:00,
2013-09-14 23:55:00,80.0,74.0,29.95,ENE,59,0.0,1.0,82,0.00,,,0.00,,2013-09-15 03:55:00,